This is the latest recevied weather packets stored in our database for station/object EUGENE. If no packets are shown the sender has not sent any weather packets the latest 10 day(s).
| Time | Temp. | Humidity | Pressure | Rain* | Wind** | Luminosity | Snow |
|---|---|---|---|---|---|---|---|
| 1777941730 | 19.44° C | 69% | 1012.4 hPa | 0 mm | - | - | - |
| 1777940830 | 20° C | 69% | 1012.2 hPa | 0 mm | - | - | - |
| 1777939930 | 20° C | 68% | 1012.2 hPa | 0 mm | - | - | - |
| 1777939030 | 20° C | 68% | 1012.3 hPa | 0 mm | - | - | - |
| 1777938130 | 20° C | 68% | 1012.3 hPa | 0 mm | - | - | - |
| 1777937230 | 20° C | 68% | 1012.4 hPa | 0 mm | - | - | - |
| 1777936330 | 20° C | 69% | 1012.5 hPa | 0 mm | - | - | - |
| 1777935430 | 20.56° C | 68% | 1012.7 hPa | 0 mm | - | - | - |
| 1777934530 | 20.56° C | 68% | 1012.8 hPa | 0 mm | - | - | - |
| 1777933630 | 20.56° C | 67% | 1013 hPa | 0 mm | - | - | - |
| 1777932730 | 20.56° C | 67% | 1013.2 hPa | 0 mm | - | - | - |
| 1777931830 | 19.44° C | 69% | 1013.3 hPa | 0 mm | - | - | - |
| 1777930931 | 19.44° C | 67% | 1013.4 hPa | 0 mm | - | - | - |
| 1777930030 | 18.89° C | 71% | 1013.5 hPa | 0 mm | - | - | - |
| 1777929130 | 19.44° C | 69% | 1013.6 hPa | 0 mm | - | - | - |
| 1777928230 | 18.33° C | 73% | 1013.7 hPa | 0 mm | - | - | - |
| 1777927330 | 17.22° C | 74% | 1013.9 hPa | 0 mm | - | - | - |
| 1777926430 | 17.22° C | 75% | 1013.9 hPa | 0 mm | - | - | - |
| 1777925530 | 16.67° C | 74% | 1014 hPa | 0 mm | - | - | - |
| 1777924630 | 16.67° C | 75% | 1014 hPa | 0 mm | - | - | - |
| 1777923730 | 16.67° C | 77% | 1014 hPa | 0 mm | - | - | - |
| 1777922830 | 16.11° C | 76% | 1014.1 hPa | 0 mm | - | - | - |
| 1777921930 | 15.56° C | 76% | 1014.2 hPa | 0 mm | - | - | - |
| 1777921030 | 15.56° C | 80% | 1014.3 hPa | 0 mm | - | - | - |
| 1777920129 | 15° C | 79% | 1014.5 hPa | 0 mm | - | - | - |
* Rain latest hour (hover to see other rain measurements)
** Current wind speed in m/s (hover to see current wind gust speed)